Torna al catalogo

FENGYUN 1C DEB

AttivoSSO
NORAD 30756·DEBRIS·🇨🇳 China

Lanciato May 10, 1999 da Taiyuan Satellite Launch Center

Loading…

Prossimi Passaggi (prossime 24 ore)

TLE

AggiornatoSource: Space-Track

Epoca: Sep 14, 2026, 03:58 UTC

1 30756U 99025ATS 26257.16556030  .00001575  00000-0  74789-3 0  9990
2 30756  98.9749 333.2358 0071037 250.4935 138.8478 14.19688680  3061

Traccia FENGYUN 1C DEB in tempo reale con AllMySat

Download on the App Store